CAPE
0 0 0 1 29 0 0 3 0 17 62 74 0 3 0 0 10 0 49 470 576 752 896 1339 1554 1381 1083 1212 1136 883 883 1299 1835 1767 1730 1792 1780 1648 1850 2072 1959 2107 2037 1809 1616 1563 1657 1399 1171
0 0 0 18 12 0 0 17 45 37 42 68 108 211 112 46 184 272 401 593 597 877 1171 1512 1131 1348 1230 910 1068 1687 1495 1289 1312 1721 1745 1870 2079 1861 1800 1886 1980 2034 2025 1977 1872 1800 1649 1594 1368
0 0 1 56 13 1 0 15 71 48 58 62 138 214 314 315 268 314 552 614 809 1061 1020 948 1328 1312 1670 1725 1563 1372 1625 1566 1311 1643 1687 1662 1962 2033 1993 1893 1845 2028 1925 1964 1612 1604 1551 1159 1232
0 12 33 21 8 33 23 3 72 0 53 76 43 72 256 321 277 355 529 539 566 652 1209 1473 1597 1605 1799 1594 1543 1637 1584 1680 1638 1582 1714 1873 1924 2016 1941 1740 1777 1969 2115 1548 1303 1182 1373 1448 883
0 1 0 20 12 42 24 60 15 2 27 41 0 48 170 198 206 252 93 77 15 444 1318 1264 1399 1571 1548 1576 1608 1589 1548 1729 1864 1807 1818 1815 1824 1926 1984 1818 1806 1708 1989 1916 1402 1398 1689 1279 1055
3 5 8 5 14 15 81 50 102 11 60 67 0 0 55 96 72 0 0 0 2 487 1274 1273 1375 1432 1462 1414 1518 1521 1475 1496 1591 1780 1650 1669 1824 1821 1810 1960 1985 1856 2011 1728 1585 1672 1768 1002 1301
1 45 62 8 32 9 19 9 1 9 2 0 0 0 35 45 0 23 137 0 36 676 926 1144 1241 1302 1345 1292 1402 1444 1500 1559 1439 1516 1584 1783 1841 1719 1765 2018 1650 1890 1818 1619 1507 1404 1453 1388 1341
6 119 0 11 25 49 81 35 0 0 0 0 1 0 1 0 15 48 79 3 57 577 728 966 1110 1145 1027 1230 1260 1287 1235 1354 899 1242 1529 1770 1771 1733 1745 1708 1951 1858 1774 1546 1315 1209 1186 1085 1127
118 86 2 34 5 58 170 13 16 10 0 1 0 0 5 102 1 30 14 124 190 295 527 835 807 744 696 975 1181 1114 1060 1056 1244 1008 1456 1614 1347 1375 1442 1864 1854 1787 1672 1449 1108 763 765 990 1195
84 43 12 96 1 79 234 175 174 1 0 4 1 51 29 145 107 83 133 96 0 189 283 566 529 534 629 911 875 814 553 322 664 795 868 683 881 1059 1295 1640 1663 1421 1295 1341 1478 1105 986 1172 712
82 68 36 44 212 354 213 149 147 14 17 0 0 0 25 102 85 112 166 142 157 312 416 482 477 280 315 607 418 282 175 244 326 597 726 696 669 972 1195 1436 1198 366 644 573 560 748 480 1005 949
50 101 414 104 452 202 192 126 241 192 42 0 20 16 6 15 38 63 88 171 258 346 366 419 258 251 227 323 144 181 385 516 405 281 465 540 669 599 739 877 785 716 817 680 641 976 1199 1477 1573
224 157 395 267 175 175 136 178 131 42 14 1 19 20 21 25 9 11 34 220 254 241 295 235 245 329 259 252 109 101 375 542 530 479 253 360 483 357 706 691 594 445 133 469 21 490 802 574 383
125 396 476 204 108 54 117 167 50 71 16 7 29 17 14 19 1 9 119 180 98 224 238 240 301 461 416 319 212 99 427 162 195 156 175 449 477 554 322 526 592 720 678 356 217 472 791 722 133
81 150 266 195 121 74 64 42 72 59 8 2 48 58 39 34 35 50 140 191 225 203 251 333 320 420 607 486 240 217 254 59 400 534 575 435 472 328 264 551 519 847 1060 685 539 818 1101 839 365
152 251 239 188 147 173 11 17 46 22 9 12 7 43 61 38 62 151 205 218 200 151 29 21 546 566 566 565 338 285 162 185 493 467 581 444 230 240 207 155 491 809 856 719 422 675 574 541 446
0 151 88 170 327 248 164 0 59 28 77 9 1 15 13 58 62 193 197 127 135 50 0 227 337 224 252 242 230 305 201 383 584 549 807 538 724 710 825 404 579 639 505 663 700 551 655 590 513
0 1 121 128 268 273 125 41 170 43 69 50 4 9 8 15 45 184 155 95 166 9 0 118 167 117 385 73 164 132 285 334 468 488 770 855 1022 1027 1077 662 744 862 744 719 725 555 286 574 180
0 0 0 115 202 46 58 10 89 229 88 45 1 4 4 12 14 110 132 130 123 0 0 0 0 26 351 211 39 168 252 482 530 483 763 938 934 972 1133 1188 536 500 355 477 932 883 797 776 852
0 0 39 125 33 21 1 9 7 173 215 139 24 28 11 11 12 36 129 116 71 3 8 0 0 73 150 382 328 248 258 360 688 967 911 719 735 1032 872 1024 247 502 656 1167 783 686 384 331 492
0 0 0 33 28 7 0 2 2 116 199 128 65 33 7 3 1 5 118 112 86 65 70 88 0 16 106 466 453 551 501 532 780 795 783 921 859 1009 1060 980 752 524 501 583 768 1064 634 486 621
0 0 0 24 31 3 0 1 1 130 182 137 110 70 27 4 0 4 84 108 62 48 110 178 151 29 100 189 457 582 575 468 456 656 658 991 1177 1033 943 986 928 696 134 317 254 1138 829 309 932
0 0 0 8 51 25 3 28 1 86 173 113 123 93 34 5 1 0 14 84 87 31 150 220 206 143 177 355 231 353 551 425 453 553 816 586 811 1093 1164 1116 833 676 315 185 426 1180 940 1268 1027
0 0 0 153 55 14 0 4 77 3 79 163 139 108 22 8 3 1 6 36 98 84 158 171 163 90 6 183 529 540 526 330 482 576 632 683 617 705 1116 1034 882 618 523 413 701 1179 1194 1151 845
0 0 0 38 13 0 0 3 7 32 172 125 125 105 34 10 4 48 23 33 83 139 263 179 140 5 0 89 455 627 611 217 335 473 523 603 544 921 899 1132 1055 861 468 364 350 972 1065 960 836
0 0 0 0 0 21 34 0 57 146 201 376 224 138 89 38 34 60 41 83 110 135 210 329 196 130 159 42 362 605 624 506 464 530 484 592 568 562 759 1100 1311 1085 829 650 753 966 983 812 958
0 0 0 0 7 0 3 56 58 192 222 128 111 152 126 60 20 40 19 44 113 100 201 296 324 217 163 80 270 520 602 476 472 510 307 551 645 38 579 609 1033 1070 1219 546 1213 1129 1067 1109 990
0 0 0 0 0 0 11 69 85 106 193 250 114 43 56 35 2 6 0 19 23 97 91 280 454 253 213 238 199 457 382 713 457 505 842 724 622 399 885 798 831 845 1210 1138 926 1034 826 888 952
0 0 0 0 0 0 4 66 145 99 47 56 55 83 67 30 15 24 9 32 54 61 77 280 323 433 551 465 348 303 349 704 675 534 943 900 594 551 680 541 689 630 936 1265 1094 909 857 885 1046
0 0 0 0 0 9 134 72 51 26 54 49 43 52 48 53 111 181 91 72 74 82 65 111 270 227 286 388 502 517 399 653 695 573 942 1315 945 637 439 372 287 487 745 990 1168 1100 1020 787 678
CIN
0 0 0 -9 -27 0 -13 -8 -65 -48 -6 -28 0 -56 0 0 -143 0 -161 -80 -65 -49 -31 -2 0 -3 -23 -9 -11 -25 -25 -2 0 0 0 0 0 0 0 0 0 0 0 0 0 0 0 0 0
0 0 0 -42 -33 0 0 -38 -13 -21 -67 -78 -27 -50 -86 -70 -141 -110 -60 -42 -68 -40 -5 0 -9 -3 -9 -28 -17 0 0 -2 -2 -2 0 0 0 0 0 0 0 0 -1 0 0 0 0 0 0
0 0 -14 -3 -7 -24 0 -23 -15 -35 -39 -55 -71 -57 -106 -127 -121 -97 -77 -51 -42 -18 -18 -20 -2 -4 0 0 0 0 0 0 0 0 0 0 0 0 0 0 0 0 0 0 -1 -3 -1 -2 -2
0 -21 -8 -3 -28 -26 -45 -25 -10 -1 -75 -98 -162 -131 -88 -68 -119 -106 -71 -74 -73 -50 -4 0 0 0 0 0 0 0 0 0 0 0 0 0 0 0 0 0 0 0 0 -4 -13 -19 -12 -5 -17
0 -15 -4 -15 -11 -47 -35 -21 -26 -42 -111 -95 0 -34 -75 -40 -91 -106 -102 -134 -132 -68 0 -1 -1 0 0 0 0 0 0 0 0 0 0 0 0 0 0 0 0 -5 0 0 -17 -21 -12 -5 -10
-7 -18 -4 -17 -6 -14 -9 -30 -33 -61 -98 -97 0 0 -66 -73 -101 0 0 0 -18 -85 -2 -1 -1 0 0 0 0 0 0 0 0 0 0 0 0 0 0 0 -1 0 0 -1 -9 -10 -11 -15 -12
0 -15 -1 -27 -4 0 -18 -38 -74 -81 -12 0 0 0 -63 -76 0 -87 -108 0 -141 -68 -34 -3 0 0 0 0 0 0 0 0 0 0 0 0 0 0 -2 0 -3 -1 0 -4 -15 -19 -20 -25 -22
-79 -46 0 -30 -10 -1 -7 -13 -5 0 0 0 -4 0 -3 0 -106 -94 -100 -4 -105 -56 -53 -20 -4 -4 -7 0 0 0 0 0 -4 0 0 0 0 0 0 -3 0 0 -7 -23 -40 -46 -41 -44 -35
-12 -9 -2 -13 -47 -6 -14 -28 -36 -81 0 -12 0 0 -19 -36 -10 -103 -68 -53 -58 -46 -56 -34 -34 -32 -28 -2 0 -2 -7 -7 0 0 0 -2 -14 -14 -18 -8 -4 -15 -35 -40 -59 -71 -69 -56 -39
-7 -18 -38 -27 -60 -45 -11 -6 -6 -22 0 -13 -1 -39 -54 -48 -54 -87 -71 -77 0 -69 -59 -39 -50 -41 -26 -3 -10 -26 -31 -45 -21 -16 -15 -44 -48 -41 -27 -23 -33 -44 -60 -61 -46 -47 -46 -36 -51
-47 -3 -28 -67 -36 -19 -15 -20 -20 -12 -32 0 0 -2 -46 -60 -62 -79 -88 -85 -62 -58 -52 -35 -53 -57 -46 -24 -50 -61 -68 -56 -48 -30 -27 -51 -66 -51 -45 -45 -71 -112 -84 -71 -72 -68 -79 -50 -47
-42 -107 -38 -59 -15 -22 -23 -35 -17 -15 -42 0 -84 -66 -27 -54 -118 -74 -79 -75 -55 -57 -55 -58 -57 -48 -45 -47 -81 -82 -49 -43 -40 -69 -58 -64 -51 -72 -55 -60 -105 -83 -89 -89 -106 -72 -76 -67 -65
-29 -51 -48 -51 -50 -40 -36 -23 -25 -51 -47 -18 -45 -54 -49 -50 -62 -64 -95 -85 -67 -56 -58 -76 -69 -42 -44 -40 -81 -78 -56 -48 -40 -50 -75 -74 -71 -90 -71 -61 -91 -111 -181 -122 -211 -77 -83 -73 -52
-56 -38 -27 -69 -80 -84 -40 -33 -18 -33 -47 -45 -44 -42 -39 -51 -18 -53 -84 -66 -67 -59 -66 -61 -65 -49 -38 -40 -47 -60 -51 -48 -55 -92 -93 -42 -64 -66 -86 -72 -73 -77 -84 -116 -131 -93 -60 -47 -108
-29 -38 -51 -50 -55 -71 -49 -32 -14 -36 -60 -20 -20 -30 -40 -64 -62 -96 -84 -93 -73 -64 -69 -38 -39 -36 -35 -31 -38 -42 -36 -95 -34 -45 -42 -56 -71 -64 -64 -60 -81 -54 -56 -79 -88 -62 -35 -38 -59
-31 -22 -42 -49 -71 -74 -14 -25 -20 -23 -37 -17 -32 -24 -28 -36 -54 -74 -64 -74 -102 -95 -23 -12 -19 -35 -49 -36 -32 -38 -45 -41 -33 -44 -38 -51 -81 -77 -69 -92 -71 -60 -65 -83 -64 -45 -45 -34 -33
0 -20 -47 -22 -25 -68 -30 0 -62 -51 -30 -25 -28 -16 -14 -32 -59 -65 -53 -81 -104 -102 0 -60 -29 -27 -38 -46 -54 -63 -44 -36 -26 -39 -34 -45 -33 -39 -38 -59 -54 -69 -75 -49 -56 -53 -54 -30 -34
0 -12 -16 -19 -12 -30 -43 -75 -62 -121 -33 -27 -32 -26 -24 -40 -42 -61 -65 -77 -84 -62 0 -94 -43 -31 -29 -56 -63 -65 -44 -46 -41 -38 -27 -32 -29 -30 -29 -39 -34 -61 -59 -43 -49 -52 -62 -41 -69
0 0 0 -35 -51 -83 -67 -102 -48 -30 -21 -19 -23 -20 -18 -37 -56 -52 -59 -76 -70 0 0 0 0 -30 -34 -40 -41 -37 -33 -31 -37 -32 -26 -23 -20 -22 -27 -34 -51 -52 -44 -42 -40 -44 -27 -31 -62
0 0 -14 -56 -106 -87 -12 -53 -101 -12 -23 -31 -21 -22 -17 -43 -60 -79 -68 -75 -72 -10 -24 0 0 -59 -48 -31 -45 -46 -45 -51 -50 -37 -25 -29 -24 -17 -24 -31 -55 -39 -37 -27 -39 -38 -36 -55 -75
0 0 0 -14 -94 -131 0 -35 -49 -63 -27 -31 -20 -23 -25 -36 -74 -57 -73 -69 -78 -76 -82 -70 0 -10 -75 -31 -32 -31 -38 -35 -29 -29 -25 -31 -32 -22 -21 -26 -35 -40 -52 -34 -34 -33 -38 -33 -58
0 0 0 -48 -39 -23 0 -17 -20 -60 -12 -39 -12 -25 -35 -49 -14 -103 -82 -80 -82 -89 -80 -68 -80 -31 -51 -42 -20 -14 -14 -21 -33 -33 -23 -20 -19 -16 -17 -23 -36 -40 -76 -42 -50 -38 -41 -68 -33
0 0 0 -42 -55 -57 -55 -48 -7 -100 -41 -23 -17 -38 -39 -56 -3 0 -87 -100 -96 -106 -81 -73 -66 -59 -40 -28 -15 -24 -23 -43 -43 -33 -20 -26 -18 -17 -13 -21 -37 -49 -62 -75 -52 -25 -35 -43 -42
0 0 0 -38 -26 -7 0 -81 -92 -91 -144 -75 -48 -37 -52 -65 -65 -12 -101 -81 -89 -104 -96 -96 -79 -65 -8 -40 -22 -21 -22 -36 -29 -31 -27 -20 -25 -20 -17 -21 -28 -46 -48 -54 -46 -40 -34 -41 -52
0 0 0 -6 -28 0 0 -29 -74 -149 -111 -119 -133 -97 -92 -79 -108 -49 -81 -104 -73 -89 -113 -98 -88 -21 0 -44 -30 -28 -25 -38 -33 -45 -36 -30 -38 -29 -16 -21 -26 -33 -44 -53 -59 -39 -37 -39 -42
0 0 0 0 0 -39 -65 0 -92 -142 -115 -92 -123 -126 -117 -101 -119 -73 -88 -120 -72 -71 -87 -91 -97 -85 -72 -78 -39 -34 -27 -34 -37 -49 -48 -41 -42 -46 -42 -31 -27 -25 -38 -40 -35 -35 -41 -53 -46
0 0 0 0 -51 0 -10 -119 -182 -183 -135 -159 -172 -152 -116 -121 -94 -78 -111 -117 -77 -80 -65 -88 -109 -96 -88 -91 -78 -39 -37 -42 -36 -47 -57 -56 -59 -113 -61 -65 -48 -35 -24 -55 -27 -29 -29 -40 -49
0 0 0 0 0 0 -25 -62 -106 -174 -157 -100 -158 -200 -187 -191 -72 -83 -106 -104 -125 -93 -90 -66 -83 -113 -115 -102 -92 -49 -54 -39 -45 -55 -35 -51 -58 -84 -63 -60 -51 -53 -34 -24 -40 -35 -45 -45 -36
0 0 0 0 0 0 0 -48 -138 -183 -246 -217 -210 -160 -192 -238 -219 -113 -123 -186 -111 -92 -104 -61 -31 -42 -66 -64 -82 -77 -63 -44 -43 -45 -36 -34 -53 -65 -72 -66 -60 -69 -58 -37 -30 -34 -34 -39 -38
0 0 0 0 0 -10 -51 -74 -159 -171 -197 -193 -171 -184 -201 -158 -166 -83 -109 -128 -102 -88 -93 -108 -86 -33 -59 -73 -47 -52 -69 -49 -45 -52 -30 -27 -36 -62 -63 -73 -104 -80 -47 -42 -36 -24 -23 -41 -45
Wind_Speed
17 16 17 17 19 12 25 24 27 26 28 30 33 29 30 25 26 23 35 34 33 34 32 31 29 27 23 19 17 17 19 21 22 24 24 25 25 26 26 26 24 22 22 22 21 24 23 21 25
17 17 16 16 17 23 25 25 27 25 28 29 29 27 26 26 23 34 35 34 33 33 31 29 27 26 24 20 20 20 21 22 23 23 24 25 25 27 28 29 28 28 23 19 22 25 24 19 18
16 16 15 15 15 25 29 28 30 31 32 31 29 21 24 25 30 35 35 33 33 32 30 29 28 27 24 23 22 22 23 24 25 26 25 23 26 28 28 29 30 31 30 24 24 28 31 30 11
15 15 14 14 16 27 28 29 28 27 23 11 23 23 27 31 34 36 35 34 33 32 31 30 29 28 26 23 22 22 22 24 26 26 27 28 29 29 30 30 31 31 27 27 27 30 30 30 30
10 10 13 14 14 30 28 30 32 28 8 23 22 29 31 30 34 36 35 34 34 33 31 30 29 28 28 27 27 27 28 28 28 28 27 28 30 30 30 30 30 31 29 29 29 30 28 24 18
15 15 15 20 32 30 21 25 29 23 28 24 27 31 32 33 37 36 35 34 34 33 32 30 29 28 28 27 28 28 27 25 25 28 29 29 29 29 31 31 30 29 28 28 28 29 28 30 29
17 12 12 26 35 27 26 26 25 26 31 29 29 33 35 36 35 35 34 33 33 32 31 30 28 28 28 28 28 28 28 27 28 29 29 29 30 30 31 31 30 28 26 26 27 27 27 27 26
15 11 19 22 33 15 26 22 27 26 26 24 29 32 37 36 35 35 32 32 33 31 31 30 28 28 28 28 29 29 29 28 29 29 30 30 31 31 31 30 30 29 28 27 27 26 27 26 23
14 15 13 27 33 31 30 19 8 15 28 29 17 32 34 32 33 31 32 33 32 31 30 30 29 29 29 29 30 31 30 30 30 30 31 31 30 29 29 30 29 28 25 25 25 25 24 22 18
13 11 23 24 29 28 30 16 6 31 31 22 23 28 30 32 34 32 33 34 32 31 30 30 29 29 29 29 30 31 30 30 30 31 31 30 29 29 29 28 27 24 22 21 20 22 21 20 19
12 20 22 25 24 28 30 7 15 28 28 28 32 33 33 34 32 31 34 31 32 31 30 30 30 30 29 30 30 29 29 29 30 31 30 28 28 28 27 23 22 22 21 19 16 17 19 18 18
14 9 15 22 26 27 24 6 4 27 26 26 29 32 32 33 31 29 31 30 30 30 30 31 31 31 28 30 29 28 28 28 28 29 28 29 28 28 27 24 21 18 18 18 15 16 15 15 18
14 12 18 14 22 21 19 2 2 12 21 26 28 27 30 30 23 28 30 30 29 29 29 30 30 29 28 29 28 28 28 26 27 28 29 30 27 27 24 23 21 20 17 17 17 17 15 15 15
7 7 7 18 15 11 12 4 8 8 7 18 26 27 26 24 19 21 23 29 27 28 29 29 29 27 29 28 28 28 26 27 28 28 27 26 26 26 23 21 20 19 18 19 18 18 16 14 19
12 7 4 13 13 5 9 7 8 5 7 20 24 25 22 20 14 23 24 24 26 28 27 27 28 25 27 27 27 27 25 26 27 27 27 27 26 25 24 24 22 19 19 18 19 17 16 15 17
12 7 3 11 8 10 7 15 16 28 29 37 22 26 25 17 14 19 23 22 23 24 27 26 25 21 26 27 26 26 26 25 26 26 26 26 25 24 23 23 21 21 20 20 19 17 16 18 19
18 17 16 6 13 5 10 3 29 31 31 20 28 23 8 18 15 19 20 15 20 20 24 24 21 20 22 26 26 24 24 24 25 24 24 25 23 22 22 23 22 20 21 21 19 18 18 19 18
18 20 19 20 8 7 8 8 13 20 34 25 22 30 8 18 15 19 19 17 21 19 21 19 21 22 17 18 22 19 19 23 24 23 23 23 23 22 20 23 21 19 22 22 19 18 18 18 18
24 24 26 19 7 15 15 7 2 17 31 39 22 23 12 18 16 18 20 19 19 15 18 18 17 16 11 14 19 23 25 23 23 23 21 21 22 23 21 23 21 19 20 21 19 19 16 17 17
25 24 18 9 9 13 13 14 15 6 25 32 29 20 16 10 16 17 19 15 16 15 15 14 13 18 15 19 25 24 23 23 23 22 21 21 22 22 23 23 23 20 20 18 17 17 17 17 15
28 27 25 20 12 16 17 26 29 18 14 11 24 13 15 18 20 15 17 15 13 14 13 17 15 16 17 16 24 24 23 23 22 22 21 21 22 23 23 23 22 21 20 21 18 15 16 16 16
34 30 27 17 20 25 10 22 19 14 12 8 10 9 12 12 15 16 16 15 13 14 11 13 17 17 19 15 19 22 23 21 22 21 21 21 22 23 22 23 22 22 22 22 18 18 16 18 11
35 31 30 23 19 16 20 23 23 16 16 11 12 9 7 13 14 12 16 15 13 11 11 12 14 17 17 14 28 25 22 21 19 22 22 22 22 22 21 20 22 22 23 23 21 17 17 16 14
34 31 25 15 19 27 22 21 20 7 16 13 12 16 8 9 20 16 17 10 10 7 5 8 11 14 7 13 25 18 12 15 20 23 23 23 21 22 22 21 22 21 21 23 22 18 19 18 17
31 27 29 28 26 27 15 18 25 13 8 19 22 25 14 13 13 21 17 11 10 8 6 5 8 14 7 7 15 14 10 12 17 18 21 23 22 21 21 21 22 21 22 22 22 23 22 20 19
29 28 29 31 29 24 17 24 20 21 11 4 4 12 11 13 14 12 16 16 16 10 8 7 9 7 10 9 8 11 8 8 16 18 20 23 23 22 23 19 19 21 21 21 22 22 23 22 21
32 31 26 25 21 23 22 22 19 13 15 9 8 9 14 10 14 13 14 22 22 24 14 9 7 6 9 9 8 12 20 27 22 23 23 23 24 23 25 21 20 20 23 23 21 21 22 22 22
29 23 28 26 28 33 26 21 22 20 18 16 12 12 17 17 21 13 25 27 26 19 23 16 10 8 12 15 14 8 15 28 29 27 27 26 24 21 24 11 18 20 22 23 22 22 22 22 23
31 30 25 24 27 30 27 24 22 11 9 12 14 16 16 17 21 19 23 25 23 18 19 22 20 21 20 21 21 24 10 28 33 32 30 28 28 26 25 20 20 23 21 22 21 22 22 22 22
31 31 31 32 29 22 22 24 13 8 6 9 14 16 15 14 13 10 8 9 15 16 13 15 22 21 20 22 23 21 29 29 34 32 32 30 28 24 29 26 26 27 26 25 24 23 22 23 23
Wind_Direction
101 86 88 90 71 185 123 112 139 139 117 133 128 129 129 129 126 126 129 133 119 127 126 129 115 104 87 73 64 61 67 74 70 84 81 81 80 80 81 76 70 65 65 62 59 65 63 58 65
95 82 91 78 60 144 132 141 117 107 97 101 127 110 111 134 117 118 124 124 120 124 125 117 110 103 92 75 71 70 74 70 81 75 79 81 78 84 86 94 88 84 69 59 62 70 66 56 52
95 111 86 68 52 139 129 128 138 104 107 112 122 158 145 123 101 128 122 116 118 119 119 117 112 108 94 86 80 76 78 83 88 89 79 72 84 91 91 96 100 104 100 123 146 133 110 100 31
87 106 96 65 69 159 160 138 142 98 84 42 90 78 130 126 129 127 117 117 116 119 120 119 116 111 102 89 85 79 78 82 93 91 89 94 97 97 104 96 106 114 136 140 135 120 108 95 97
54 42 127 65 242 175 168 143 127 124 147 92 91 111 111 114 113 116 116 119 119 123 125 127 123 122 125 122 115 111 122 126 109 105 95 104 114 117 123 122 118 121 123 126 123 113 121 127 50
296 50 82 115 163 172 191 170 133 85 93 82 87 103 133 111 117 119 117 122 122 123 128 132 128 129 132 135 133 133 142 150 148 130 118 124 135 134 128 122 122 126 126 128 129 120 120 107 113
258 102 219 167 148 165 173 169 103 95 100 108 98 102 116 120 119 119 118 117 124 125 127 134 135 132 128 131 131 132 137 138 131 123 124 132 131 132 130 124 118 126 132 135 137 136 134 120 123
340 305 158 186 144 206 164 178 102 103 90 93 99 119 126 123 120 120 113 118 124 130 129 132 136 136 133 133 128 131 132 130 124 124 127 130 129 131 128 130 122 122 126 130 135 140 135 128 140
325 311 125 167 175 161 157 96 78 87 102 110 191 117 117 116 118 111 111 122 128 133 135 134 132 130 132 131 129 127 126 125 126 125 125 127 134 138 136 128 124 128 137 135 137 140 144 147 158
344 305 178 186 134 133 135 99 182 121 116 95 97 109 116 119 122 119 125 128 132 134 135 137 132 129 130 131 130 129 129 126 124 126 132 136 139 137 136 133 132 140 147 151 150 145 151 153 161
334 147 160 180 127 133 136 95 215 123 131 118 121 124 126 127 125 125 133 130 132 132 134 137 136 134 135 133 132 135 133 130 131 127 135 143 144 143 142 153 147 146 144 156 165 163 158 159 166
332 258 214 180 127 130 122 78 85 152 139 118 120 125 127 131 133 128 130 128 129 135 134 133 133 136 145 129 137 135 137 139 138 138 142 137 138 140 141 148 154 163 163 168 173 170 178 178 171
292 33 155 78 114 117 107 328 9 101 116 119 123 123 130 133 121 132 134 131 126 128 131 135 134 134 145 134 139 140 138 143 145 139 141 126 138 140 147 151 155 156 168 172 169 167 173 174 174
312 5 51 95 85 91 92 256 250 231 129 121 131 133 133 127 118 121 124 131 129 132 132 141 137 137 140 143 142 140 142 133 124 134 136 146 147 143 152 159 163 163 166 167 168 168 174 175 163
287 316 31 90 86 22 78 273 98 147 200 128 136 137 136 128 121 129 127 127 128 134 130 138 143 136 144 148 143 141 150 133 116 126 128 137 138 143 152 152 153 163 170 171 171 175 181 182 171
276 308 298 112 88 81 323 262 234 206 206 180 139 144 143 133 124 128 127 124 125 124 133 125 128 106 135 146 144 148 137 131 129 115 129 140 144 148 154 160 162 162 163 169 167 175 175 173 172
260 259 268 288 139 56 309 292 184 210 215 150 152 145 135 137 135 133 131 123 127 121 128 126 117 105 104 120 128 122 125 127 139 122 127 149 161 167 163 160 162 169 165 170 175 176 173 169 177
254 256 265 268 257 281 310 330 120 148 202 154 149 155 129 132 140 133 133 128 127 123 127 117 121 121 98 97 114 98 101 127 147 143 134 133 153 170 175 168 175 178 168 168 177 182 180 176 175
259 266 263 271 268 275 281 305 37 137 163 186 150 152 141 141 133 135 136 131 129 123 122 118 120 121 101 93 108 127 147 145 151 149 143 133 135 161 177 167 177 186 182 174 181 174 195 188 187
256 261 274 310 280 281 293 269 278 244 164 167 159 153 155 149 138 137 140 135 132 130 129 123 118 125 119 125 149 152 157 155 151 149 152 157 145 149 164 167 170 192 191 201 203 202 192 185 193
252 257 260 275 281 287 289 255 261 264 257 230 230 227 160 156 152 144 144 146 137 135 136 138 132 132 134 124 154 186 180 163 157 162 159 173 170 170 168 159 164 181 198 195 201 209 208 204 194
247 250 263 273 269 268 286 278 254 245 246 204 183 206 241 206 168 155 150 149 148 144 142 140 143 141 143 132 143 166 164 158 156 154 161 165 161 153 151 176 176 177 173 194 213 210 214 195 236
243 255 264 269 264 269 266 256 244 249 249 220 204 214 216 231 237 201 164 158 158 149 147 145 148 149 146 141 190 186 168 150 147 166 161 167 173 163 147 154 163 168 196 193 206 228 218 214 226
245 258 269 266 268 264 271 260 271 219 154 240 222 232 199 203 236 240 250 195 175 176 179 152 150 156 159 145 232 184 115 126 149 172 175 169 176 179 172 156 167 163 164 197 211 230 216 219 220
250 252 250 248 254 265 270 263 264 252 177 150 158 174 184 177 189 239 248 220 202 193 212 202 158 159 187 227 257 268 124 120 145 145 160 171 178 161 167 159 175 185 185 183 191 205 214 225 227
249 245 248 249 254 260 278 266 274 256 251 237 197 156 245 215 230 199 246 250 244 218 196 201 169 173 241 201 239 269 134 124 141 151 155 182 181 171 171 149 155 178 179 182 182 203 212 221 222
246 247 255 259 262 257 274 277 277 264 255 266 263 263 260 199 240 222 242 241 246 248 245 201 212 236 235 213 212 259 259 186 169 175 177 177 185 195 188 177 169 173 187 182 182 190 204 221 232
248 250 247 252 244 252 266 266 268 253 256 255 268 273 269 266 260 254 238 240 246 262 254 253 238 243 251 248 244 223 169 188 196 197 207 197 182 176 189 125 154 165 178 190 187 196 211 218 222
245 243 250 256 248 254 258 263 276 262 265 258 268 270 272 271 268 263 245 247 251 263 265 259 259 262 257 252 249 250 229 189 209 216 214 206 203 196 208 237 182 182 170 180 182 192 204 225 235
247 246 246 247 247 259 268 266 283 263 270 271 266 265 280 286 294 281 216 236 256 253 274 275 264 259 261 259 256 255 246 248 209 207 207 229 196 184 219 245 225 223 219 211 195 197 199 218 232